Location: Saint-Restitut
(44.3351°N, 4.7915°E)
Time: 13:37:15
(UTC+00:00)

S3M - Pass Details

Date: 03 February 2023
Orbit: 948 x 1005 km, 83.0° (Epoch: 19 March)

Event Time Altitude Azimuth Distance (km) Brightness Sun altitude
Rises 18:27:13 0° 170° (S) 3,715 7.0 -17.1°
Reaches altitude 10° 18:29:47 10° 165° (SSE) 2,771 6.3 -17.6°
Maximum altitude 18:35:56 52° 91° (E) 1,232 4.1 -18.7°
Drops below altitude 10° 18:42:05 10° 17° (NNE) 2,781 6.2 -19.8°
Sets 18:44:41 0° 13° (NNE) 3,729 6.9 -20.3°
